LMRST-SAT

Last updated on Thu Nov 21 2024 00:03:39 GMT+0000 (Coordinated Universal Time)

1 40971U 15058H 24325.24987787 .00006518 00000+0 57123-3 0 9998 2 40971 64.7766 251.6700 0187661 258.5830 99.4150 14.84886480 28144
UTC large
Height (km)
Speed (km/s)
/
Latitude / Longitude
Inclination (degrees)
Orbital Period (minutes)
Azimuth
Elevation
Range (km)
Doppler Factor

Next 0 passes for location: London (51.5072 / 0.1276)

Sorry there are no passes over London.